AD7CQ Weather Reports


Display with metric or nautical units.
time (UTC)temp
F
wind
direction
speed
MPH
gust
MPH
rain 1hr
in
rain 24hr
in
rain mn
in
humidity
%
barometer
mb
20260506001550 86 4 0.0 5.0 0.00 0.00 0.00 26 1006.0
20260506000047 86 8 0.0 3.0 0.00 0.00 0.00 26 1006.1
20260505234550 87 359 0.0 3.0 0.00 0.00 0.00 27 1006.3
20260505233043 86 289 0.0 2.0 0.00 0.00 0.00 29 1006.4
20260505231552 85 56 0.0 5.0 0.00 0.00 0.00 27 1006.6
20260505230052 86 359 0.0 0.0 0.00 0.00 0.00 30 1006.7
20260505224539 85 20 0.0 0.0 0.00 0.00 0.00 30 1006.8
20260505223038 85 359 0.0 5.0 0.00 0.00 0.00 29 1007.0
20260505221536 85 15 2.0 8.0 0.00 0.00 0.00 31 1007.1
20260505220036 84 354 1.0 3.0 0.00 0.00 0.00 32 1007.2
20260505214533 84 262 1.0 7.0 0.00 0.00 0.00 32 1007.5
20260505213029 83 8 0.0 0.0 0.00 0.00 0.00 33 1007.5
20260505211527 83 12 0.0 5.0 0.00 0.00 0.00 35 1007.6
20260505210025 82 12 2.0 5.0 0.00 0.00 0.00 36 1007.7
20260505204524 82 258 1.0 8.0 0.00 0.00 0.00 35 1007.9
20260505203023 82 354 2.0 9.0 0.00 0.00 0.00 36 1008.0
20260505201519 81 359 1.0 8.0 0.00 0.00 0.00 37 1008.1
20260505200018 80 359 1.0 6.0 0.00 0.00 0.00 39 1008.1
20260505194514 79 308 1.0 5.0 0.00 0.00 0.00 40 1008.1
20260505193012 79 291 1.0 6.0 0.00 0.00 0.00 41 1008.2
20260505191509 78 313 1.0 5.0 0.00 0.00 0.00 42 1008.3
20260505190009 77 324 1.0 5.0 0.00 0.00 0.00 43 1008.4
20260505184502 76 4 0.0 5.0 0.00 0.00 0.00 43 1008.4
20260505183059 75 262 1.0 5.0 0.00 0.00 0.00 45 1008.5
20260505181555 75 278 1.0 5.0 0.00 0.00 0.00 46 1008.5
20260505174554 73 308 1.0 8.0 0.00 0.00 0.00 48 1008.6
20260505173046 72 307 0.0 8.0 0.00 0.00 0.00 50 1008.6
20260505171541 71 359 1.0 4.0 0.00 0.00 0.00 51 1008.5
20260505170034 69 335 0.0 3.0 0.00 0.00 0.00 55 1008.5
20260505164530 67 297 1.0 3.0 0.00 0.00 0.00 58 1008.5
20260505163029 66 309 0.0 0.0 0.00 0.00 0.00 60 1008.5
20260505161522 66 308 0.0 0.0 0.00 0.00 0.00 59 1008.3
20260505153013 63 4 1.0 3.0 0.00 0.00 0.00 62 1008.0
20260505151505 63 4 1.0 3.0 0.00 0.00 0.00 61 1007.9
20260505124526 55 10 0.0 3.0 0.00 0.00 0.00 74 1006.2
20260505123031 56 11 0.0 2.0 0.00 0.00 0.00 73 1006.1
20260505121522 56 11 0.0 3.0 0.00 0.00 0.00 73 1005.8
20260505120024 56 11 0.0 2.0 0.00 0.00 0.00 74 1005.5
20260505114517 57 11 1.0 2.0 0.00 0.00 0.00 74 1005.5
20260505113015 57 11 0.0 3.0 0.00 0.00 0.00 74 1005.4
20260505111519 57 10 0.0 3.0 0.00 0.00 0.00 75 1005.2
20260505101511 59 11 1.0 3.0 0.00 0.00 0.00 73 1004.3
20260505100003 60 11 0.0 1.0 0.00 0.00 0.00 71 1004.1
20260505094559 61 12 0.0 0.0 0.00 0.00 0.00 69 1004.0
20260505093103 61 11 0.0 2.0 0.00 0.00 0.00 68 1004.0
20260505091555 62 11 0.0 2.0 0.00 0.00 0.00 67 1004.0
20260505090051 63 11 0.0 4.0 0.00 0.00 0.00 65 1003.9
20260505084550 63 12 0.0 4.0 0.00 0.00 0.00 64 1003.9
20260505083048 63 11 1.0 3.0 0.00 0.00 0.00 64 1003.8
20260505081559 64 8 1.0 3.0 0.00 0.00 0.00 62 1003.8
20260505080051 65 8 0.0 1.0 0.00 0.00 0.00 60 1003.6
20260505074541 65 8 0.0 2.0 0.00 0.00 0.00 58 1003.5
20260505073040 65 8 0.0 2.0 0.00 0.00 0.00 57 1003.4
20260505071542 66 8 0.0 0.0 0.00 0.00 0.00 55 1003.3
20260505070031 67 8 0.0 1.0 0.00 0.00 0.00 54 1003.0
20260505064530 68 9 0.0 0.0 0.00 0.00 0.00 53 1002.9
20260505063033 68 8 0.0 2.0 0.00 0.00 0.00 51 1002.6
20260505061534 68 8 1.0 3.0 0.00 0.00 0.00 51 1002.5
20260505060029 69 8 1.0 5.0 0.00 0.00 0.00 51 1002.6
20260505054529 71 13 2.0 8.0 0.00 0.00 0.00 49 1002.5
20260505053037 73 4 0.0 2.0 0.00 0.00 0.00 44 1002.4
20260505051538 74 4 0.0 2.0 0.00 0.00 0.00 41 1002.2
20260505041526 78 47 1.0 4.0 0.00 0.00 0.00 35 1001.8
20260505040026 78 359 0.0 1.0 0.00 0.00 0.00 31 1001.6
20260505034527 79 359 0.0 1.0 0.00 0.00 0.00 30 1001.4
20260505033027 80 341 0.0 1.0 0.00 0.00 0.00 29 1001.3
20260505031535 81 359 0.0 1.0 0.00 0.00 0.00 28 1001.2
20260505030024 82 359 0.0 1.0 0.00 0.00 0.00 27 1001.1
20260505024524 84 359 0.0 2.0 0.00 0.00 0.00 26 1001.1
20260505023023 85 359 0.0 2.0 0.00 0.00 0.00 23 1001.1
20260505021524 86 359 1.0 2.0 0.00 0.00 0.00 21 1001.1
20260505020021 87 359 1.0 4.0 0.00 0.00 0.00 19 1001.3
20260505014520 88 328 1.0 3.0 0.00 0.00 0.00 19 1001.4
20260505013018 89 293 0.0 5.0 0.00 0.00 0.00 19 1001.5
20260505011525 90 347 1.0 6.0 0.00 0.00 0.00 18 1001.5
20260505010026 89 312 1.0 6.0 0.00 0.00 0.00 19 1001.7
20260505004515 89 231 0.0 4.0 0.00 0.00 0.00 20 1001.7
20260505003014 89 221 1.0 7.0 0.00 0.00 0.00 20 1001.7